Location: Unspecified
(0.0000°N, 0.0000°E)
Time: 11:14:02
(UTC+00:00)

Vanguard 1 Rocket - Pass Details

Date: 23 November 2019
Orbit: 650 x 4226 km, 34.3° (Epoch: 13 December)

Event Time Altitude Azimuth Distance (km) Brightness Sun altitude
Rises 14:05:12 0° 255° (WSW) 6,653 12.4 50.4°
Reaches altitude 10° 14:10:42 10° 242° (WSW) 6,165 12.5 49.3°
Maximum altitude 14:26:54 25° 193° (SSW) 5,969 12.4 45.8°
Drops below altitude 10° 14:46:31 10° 144° (SE) 7,343 12.0 41.5°
Sets 14:54:19 0° 131° (SE) 8,092 12.1 39.8°
